| time (UTC) | temp F | wind direction | speed MPH | gust MPH | rain 1hr in | rain 24hr in | rain mn in | humidity % | barometer mb |
| 20260506090023 | 52 | 19 | 10.0 | 20.0 | 0.00 | 0.00 | 0.00 | 81 | 1008.4 |
| 20260506084507 | 52 | 19 | 8.0 | 15.0 | 0.00 | 0.00 | 0.00 | 82 | 1008.2 |
| 20260506083122 | 52 | 5 | 11.0 | 19.0 | 0.00 | 0.00 | 0.00 | 81 | 1008.2 |
| 20260506081611 | 52 | 20 | 10.0 | 20.0 | 0.00 | 0.00 | 0.00 | 80 | 1008.1 |
| 20260506080106 | 52 | 18 | 13.0 | 19.0 | 0.00 | 0.00 | 0.00 | 81 | 1008.0 |
| 20260506073112 | 52 | 22 | 9.0 | 19.0 | 0.00 | 0.00 | 0.00 | 82 | 1008.0 |
| 20260506071518 | 52 | 355 | 13.0 | 19.0 | 0.00 | 0.00 | 0.00 | 81 | 1008.0 |
| 20260506061536 | 50 | 349 | 11.0 | 16.0 | 0.00 | 0.00 | 0.00 | 85 | 1007.8 |
| 20260506060127 | 49 | 11 | 9.0 | 12.0 | 0.00 | 0.00 | 0.00 | 86 | 1007.9 |
| 20260506044502 | 47 | 5 | 6.0 | 11.0 | 0.00 | 0.00 | 0.00 | 87 | 1007.8 |
| 20260506043100 | 47 | 15 | 7.0 | 10.0 | 0.00 | 0.00 | 0.00 | 87 | 1007.9 |
| 20260506041544 | 47 | 11 | 5.0 | 8.0 | 0.00 | 0.00 | 0.00 | 86 | 1007.9 |
| 20260506040031 | 47 | 12 | 5.0 | 9.0 | 0.00 | 0.00 | 0.00 | 86 | 1007.9 |
| 20260506034616 | 47 | 16 | 5.0 | 12.0 | 0.00 | 0.00 | 0.00 | 86 | 1007.9 |
| 20260506033052 | 47 | 18 | 5.0 | 10.0 | 0.00 | 0.00 | 0.00 | 86 | 1008.0 |
| 20260506031518 | 47 | 13 | 6.0 | 9.0 | 0.00 | 0.00 | 0.00 | 86 | 1008.0 |
| 20260506030015 | 47 | 38 | 8.0 | 12.0 | 0.00 | 0.00 | 0.00 | 86 | 1007.9 |
| 20260506024620 | 47 | 5 | 6.0 | 12.0 | 0.00 | 0.00 | 0.00 | 86 | 1008.1 |
| 20260506023106 | 47 | 11 | 6.0 | 11.0 | 0.00 | 0.00 | 0.00 | 86 | 1008.1 |
| 20260506021558 | 47 | 13 | 6.0 | 12.0 | 0.00 | 0.00 | 0.00 | 86 | 1008.1 |
| 20260506020126 | 47 | 24 | 6.0 | 11.0 | 0.00 | 0.00 | 0.00 | 87 | 1008.2 |
| 20260506014616 | 47 | 17 | 7.0 | 12.0 | 0.00 | 0.00 | 0.00 | 87 | 1008.2 |
| 20260506013059 | 47 | 26 | 7.0 | 11.0 | 0.00 | 0.00 | 0.00 | 87 | 1008.3 |
| 20260506011506 | 47 | 10 | 7.0 | 12.0 | 0.00 | 0.00 | 0.00 | 87 | 1008.3 |
| 20260506010122 | 47 | 9 | 7.0 | 11.0 | 0.00 | 0.00 | 0.00 | 87 | 1008.2 |
| 20260506004611 | 48 | 14 | 7.0 | 11.0 | 0.00 | 0.00 | 0.00 | 86 | 1008.4 |
| 20260506003058 | 48 | 5 | 7.0 | 11.0 | 0.00 | 0.00 | 0.00 | 86 | 1008.4 |
| 20260506001523 | 48 | 19 | 6.0 | 12.0 | 0.00 | 0.00 | 0.00 | 86 | 1008.6 |
| 20260506000013 | 48 | 5 | 8.0 | 12.0 | 0.00 | 0.00 | 0.00 | 86 | 1008.7 |
| 20260505234628 | 48 | 18 | 8.0 | 13.0 | 0.00 | 0.00 | 0.00 | 86 | 1008.7 |
| 20260505233053 | 48 | 15 | 7.0 | 12.0 | 0.00 | 0.00 | 0.00 | 86 | 1008.7 |
| 20260505231648 | 48 | 11 | 6.0 | 12.0 | 0.00 | 0.00 | 0.00 | 87 | 1008.8 |
| 20260505230114 | 49 | 5 | 8.0 | 11.0 | 0.00 | 0.00 | 0.00 | 87 | 1008.6 |
| 20260505224604 | 49 | 9 | 7.0 | 12.0 | 0.00 | 0.00 | 0.00 | 87 | 1008.8 |
| 20260505223059 | 49 | 12 | 7.0 | 10.0 | 0.00 | 0.00 | 0.00 | 86 | 1008.8 |
| 20260505221515 | 49 | 17 | 6.0 | 12.0 | 0.00 | 0.00 | 0.00 | 86 | 1008.9 |
| 20260505220004 | 50 | 12 | 7.0 | 13.0 | 0.00 | 0.00 | 0.00 | 86 | 1008.8 |
| 20260505214621 | 50 | 15 | 7.0 | 13.0 | 0.00 | 0.00 | 0.00 | 85 | 1008.6 |
| 20260505213021 | 50 | 18 | 8.0 | 14.0 | 0.00 | 0.00 | 0.00 | 85 | 1008.7 |
| 20260505211506 | 50 | 24 | 9.0 | 16.0 | 0.00 | 0.00 | 0.00 | 85 | 1008.7 |
| 20260505210122 | 50 | 29 | 8.0 | 15.0 | 0.00 | 0.00 | 0.00 | 84 | 1008.7 |
| 20260505204612 | 51 | 11 | 10.0 | 18.0 | 0.00 | 0.00 | 0.00 | 85 | 1008.7 |
| 20260505203116 | 51 | 5 | 8.0 | 15.0 | 0.00 | 0.00 | 0.00 | 85 | 1008.7 |
| 20260505201504 | 51 | 30 | 11.0 | 19.0 | 0.00 | 0.00 | 0.00 | 85 | 1008.6 |
| 20260505200117 | 51 | 5 | 8.0 | 18.0 | 0.00 | 0.00 | 0.00 | 84 | 1008.5 |
| 20260505194615 | 51 | 50 | 9.0 | 16.0 | 0.00 | 0.00 | 0.00 | 84 | 1008.4 |
| 20260505193053 | 51 | 32 | 10.0 | 16.0 | 0.00 | 0.00 | 0.00 | 83 | 1008.4 |
| 20260505191626 | 52 | 17 | 9.0 | 18.0 | 0.00 | 0.00 | 0.00 | 83 | 1008.4 |
| 20260505190049 | 52 | 32 | 10.0 | 19.0 | 0.00 | 0.00 | 0.00 | 82 | 1008.2 |
| 20260505184514 | 53 | 26 | 11.0 | 19.0 | 0.00 | 0.00 | 0.00 | 81 | 1008.2 |
| 20260505183126 | 53 | 11 | 11.0 | 16.0 | 0.00 | 0.00 | 0.00 | 81 | 1008.1 |
| 20260505181554 | 54 | 42 | 12.0 | 19.0 | 0.00 | 0.00 | 0.00 | 79 | 1008.0 |
| 20260505180018 | 55 | 15 | 10.0 | 21.0 | 0.00 | 0.00 | 0.00 | 78 | 1008.0 |
| 20260505174505 | 55 | 17 | 13.0 | 19.0 | 0.00 | 0.00 | 0.00 | 78 | 1008.0 |
| 20260505173120 | 56 | 5 | 12.0 | 20.0 | 0.00 | 0.00 | 0.00 | 77 | 1008.0 |
| 20260505171609 | 56 | 13 | 12.0 | 19.0 | 0.00 | 0.00 | 0.00 | 77 | 1008.0 |
| 20260505170055 | 57 | 26 | 12.0 | 20.0 | 0.00 | 0.00 | 0.00 | 76 | 1008.0 |
| 20260505164540 | 58 | 15 | 13.0 | 21.0 | 0.00 | 0.00 | 0.00 | 75 | 1007.8 |
| 20260505163012 | 58 | 350 | 15.0 | 22.0 | 0.00 | 0.00 | 0.00 | 74 | 1007.7 |
| 20260505161626 | 59 | 11 | 13.0 | 21.0 | 0.00 | 0.00 | 0.00 | 74 | 1007.7 |
| 20260505160110 | 59 | 30 | 10.0 | 22.0 | 0.00 | 0.00 | 0.00 | 75 | 1007.9 |
| 20260505153101 | 59 | 34 | 16.0 | 23.0 | 0.00 | 0.00 | 0.00 | 75 | 1008.1 |
| 20260505151617 | 59 | 37 | 12.0 | 24.0 | 0.00 | 0.00 | 0.00 | 77 | 1008.2 |
| 20260505130114 | 58 | 88 | 10.0 | 18.0 | 0.00 | 0.00 | 0.00 | 77 | 1008.8 |
| 20260505124603 | 58 | 62 | 8.0 | 15.0 | 0.00 | 0.00 | 0.00 | 78 | 1008.8 |
| 20260505123050 | 58 | 53 | 7.0 | 16.0 | 0.00 | 0.00 | 0.00 | 79 | 1008.9 |
| 20260505121539 | 58 | 63 | 7.0 | 15.0 | 0.00 | 0.00 | 0.00 | 79 | 1008.9 |
| 20260505120003 | 58 | 56 | 10.0 | 16.0 | 0.00 | 0.00 | 0.00 | 79 | 1008.9 |
| 20260505114618 | 57 | 28 | 9.0 | 15.0 | 0.00 | 0.00 | 0.00 | 79 | 1009.0 |
| 20260505113103 | 58 | 46 | 8.0 | 12.0 | 0.00 | 0.00 | 0.00 | 78 | 1009.1 |
| 20260505111557 | 58 | 49 | 12.0 | 16.0 | 0.00 | 0.00 | 0.00 | 78 | 1009.1 |
| 20260505101609 | 55 | 43 | 10.0 | 14.0 | 0.00 | 0.00 | 0.00 | 82 | 1009.4 |
| 20260505100013 | 54 | 49 | 9.0 | 16.0 | 0.00 | 0.00 | 0.00 | 83 | 1009.5 |
| 20260505094628 | 54 | 43 | 9.0 | 14.0 | 0.00 | 0.00 | 0.00 | 85 | 1009.5 |
| 20260505093116 | 53 | 43 | 9.0 | 16.0 | 0.00 | 0.00 | 0.00 | 85 | 1009.5 |
| 20260505091604 | 52 | 39 | 11.0 | 14.0 | 0.00 | 0.00 | 0.00 | 85 | 1009.9 |